contact: severine.martini@mio.osupytheas.fr, dominique.lefevre@mio.osupytheas.fr
Project:EMSO Ligure-ouest http://www.emso-fr.org/EMSO-France
Sensor Optode, line 4330 Serial 272 
DOI : "https://doi.org/10.17882/97948" 
Title:EMSO Ligure Ouest : Data BathyDock capteur Optode - deploiement "2023-04-28"
Datetime,Profondeur,Latitude,Longitude,optode_type,serial,O2_concentration,O2_saturation,Temperature,Calibrated_Phase,Temp_Compensated_Phase,phase_blue_light,phase_red_light,Amplitude_blue_light,Amplitude_red_light,thermistor_bridge
time,m,degree_north,degree_east,1,1,umol.l-1,%,degree_C,degree,degree,degree,degree,mV,mV,mV
2023-10-25T00:00:07,2420,42.8014,5.9826,4330,272,186.939,57.258,13.313,36.007,36.587,41.178,4.591,295.4,543.8,291.1
2023-10-25T00:03:08,2420,42.8014,5.9826,4330,272,186.730,57.194,13.313,36.021,36.601,41.193,4.593,295.4,543.8,291.1
2023-10-25T00:06:08,2420,42.8014,5.9826,4330,272,186.656,57.173,13.315,36.025,36.605,41.198,4.593,295.4,543.8,291.1
2023-10-25T00:09:07,2420,42.8014,5.9826,4330,272,186.740,57.199,13.314,36.019,36.600,41.187,4.587,295.4,543.8,291.1
2023-10-25T00:12:07,2420,42.8014,5.9826,4330,272,186.594,57.151,13.312,36.030,36.610,41.199,4.589,295.4,543.8,291.1
2023-10-25T00:15:07,2420,42.8014,5.9826,4330,272,186.645,57.169,13.314,36.025,36.606,41.195,4.589,295.4,543.8,291.1
2023-10-25T00:18:07,2420,42.8014,5.9826,4330,272,186.651,57.172,13.314,36.026,36.606,41.197,4.592,295.3,543.9,291.1
2023-10-25T00:21:07,2420,42.8014,5.9826,4330,272,186.661,57.169,13.310,36.027,36.607,41.197,4.590,295.4,543.8,291.2
2023-10-25T00:24:07,2420,42.8014,5.9826,4330,272,186.779,57.207,13.312,36.019,36.599,41.184,4.585,295.4,543.8,291.2
2023-10-25T00:27:07,2420,42.8014,5.9826,4330,272,186.702,57.185,13.313,36.023,36.603,41.195,4.592,295.4,543.8,291.1
2023-10-25T00:30:08,2420,42.8014,5.9826,4330,272,186.728,57.193,13.313,36.020,36.601,41.191,4.590,295.4,543.8,291.1
2023-10-25T00:33:07,2420,42.8014,5.9826,4330,272,186.586,57.147,13.311,36.031,36.611,41.209,4.598,295.3,543.8,291.2
2023-10-25T00:36:07,2420,42.8014,5.9826,4330,272,186.569,57.144,13.313,36.031,36.611,41.203,4.591,295.4,543.9,291.1
2023-10-25T00:39:07,2420,42.8014,5.9826,4330,272,186.790,57.208,13.310,36.018,36.598,41.193,4.594,295.3,543.8,291.2
2023-10-25T00:42:07,2420,42.8014,5.9826,4330,272,186.830,57.222,13.311,36.016,36.596,41.190,4.594,295.4,543.8,291.2
2023-10-25T00:45:07,2420,42.8014,5.9826,4330,272,186.755,57.199,13.311,36.020,36.600,41.191,4.591,295.4,543.8,291.2
2023-10-25T00:48:07,2420,42.8014,5.9826,4330,272,186.715,57.188,13.312,36.023,36.603,41.195,4.592,295.4,543.8,291.2
2023-10-25T00:51:07,2420,42.8014,5.9826,4330,272,186.697,57.182,13.312,36.023,36.603,41.197,4.593,295.3,543.8,291.2
2023-10-25T00:54:07,2420,42.8014,5.9826,4330,272,186.612,57.155,13.311,36.029,36.610,41.200,4.590,295.4,543.8,291.2
2023-10-25T00:57:07,2420,42.8014,5.9826,4330,272,186.708,57.183,13.309,36.024,36.604,41.197,4.593,295.4,543.9,291.2
2023-10-25T01:00:08,2420,42.8014,5.9826,4330,272,186.870,57.232,13.309,36.013,36.594,41.184,4.590,295.3,543.8,291.2
2023-10-25T01:03:07,2420,42.8014,5.9826,4330,272,186.748,57.195,13.310,36.021,36.601,41.193,4.593,295.3,543.8,291.2
2023-10-25T01:06:07,2420,42.8014,5.9826,4330,272,186.614,57.154,13.309,36.030,36.610,41.204,4.594,295.4,543.8,291.2
2023-10-25T01:09:08,2420,42.8014,5.9826,4330,272,186.596,57.149,13.310,36.031,36.611,41.205,4.593,295.3,543.8,291.2
2023-10-25T01:12:08,2420,42.8014,5.9826,4330,272,186.588,57.145,13.308,36.032,36.612,41.197,4.585,295.3,543.8,291.3
2023-10-25T01:15:08,2420,42.8014,5.9826,4330,272,186.544,57.136,13.312,36.034,36.614,41.204,4.590,295.3,543.8,291.2
2023-10-25T01:18:08,2420,42.8014,5.9826,4330,272,186.566,57.143,13.313,36.032,36.612,41.198,4.586,295.3,543.9,291.1
2023-10-25T01:21:08,2420,42.8014,5.9826,4330,272,186.671,57.175,13.312,36.026,36.606,41.195,4.589,295.4,543.8,291.2
2023-10-25T01:24:08,2420,42.8014,5.9826,4330,272,186.573,57.142,13.310,36.032,36.612,41.202,4.590,295.3,543.9,291.2
2023-10-25T01:27:08,2420,42.8014,5.9826,4330,272,186.625,57.158,13.310,36.029,36.609,41.201,4.592,295.3,543.8,291.2
2023-10-25T01:30:08,2420,42.8014,5.9826,4330,272,186.678,57.171,13.308,36.027,36.607,41.195,4.588,295.4,543.8,291.3
2023-10-25T01:33:07,2420,42.8014,5.9826,4330,272,186.834,57.221,13.309,36.016,36.596,41.186,4.590,295.3,543.9,291.3
2023-10-25T01:36:07,2420,42.8014,5.9826,4330,272,186.705,57.182,13.309,36.024,36.604,41.196,4.592,295.3,543.8,291.3
2023-10-25T01:39:07,2420,42.8014,5.9826,4330,272,186.726,57.187,13.309,36.024,36.604,41.196,4.592,295.4,543.8,291.3
2023-10-25T01:42:07,2420,42.8014,5.9826,4330,272,186.856,57.229,13.310,36.014,36.594,41.184,4.590,295.3,543.8,291.2
2023-10-25T01:45:07,2420,42.8014,5.9826,4330,272,186.866,57.231,13.309,36.014,36.594,41.185,4.591,295.4,543.8,291.3
2023-10-25T01:48:07,2420,42.8014,5.9826,4330,272,186.706,57.188,13.314,36.022,36.602,41.194,4.592,295.3,543.9,291.1
2023-10-25T01:51:07,2420,42.8014,5.9826,4330,272,186.848,57.228,13.311,36.014,36.594,41.189,4.595,295.4,543.8,291.2
2023-10-25T01:54:07,2420,42.8014,5.9826,4330,272,186.778,57.205,13.310,36.019,36.599,41.190,4.591,295.4,543.8,291.2
2023-10-25T01:57:08,2420,42.8014,5.9826,4330,272,186.684,57.176,13.310,36.025,36.605,41.195,4.590,295.4,543.9,291.2
2023-10-25T02:00:08,2420,42.8014,5.9826,4330,272,186.855,57.229,13.310,36.014,36.595,41.188,4.593,295.3,543.8,291.2
2023-10-25T02:03:07,2420,42.8014,5.9826,4330,272,186.623,57.156,13.309,36.030,36.610,41.204,4.594,295.3,543.9,291.3
2023-10-25T02:06:07,2420,42.8014,5.9826,4330,272,186.946,57.255,13.309,36.009,36.589,41.183,4.594,295.2,543.9,291.3
2023-10-25T02:09:07,2420,42.8014,5.9826,4330,272,186.797,57.211,13.310,36.018,36.598,41.185,4.588,295.4,543.9,291.2
2023-10-25T02:12:07,2420,42.8014,5.9826,4330,272,186.814,57.215,13.309,36.018,36.598,41.185,4.587,295.4,543.8,291.3
2023-10-25T02:15:07,2420,42.8014,5.9826,4330,272,186.818,57.217,13.310,36.016,36.597,41.185,4.588,295.3,543.9,291.2
2023-10-25T02:18:07,2420,42.8014,5.9826,4330,272,186.876,57.233,13.309,36.014,36.594,41.184,4.590,295.4,543.8,291.3
2023-10-25T02:21:07,2420,42.8014,5.9826,4330,272,186.649,57.165,13.310,36.027,36.608,41.199,4.592,295.3,543.9,291.2
2023-10-25T02:24:07,2420,42.8014,5.9826,4330,272,186.720,57.188,13.310,36.022,36.602,41.193,4.591,295.3,543.8,291.2
2023-10-25T02:27:07,2420,42.8014,5.9826,4330,272,186.747,57.196,13.310,36.021,36.602,41.190,4.588,295.4,543.8,291.2
2023-10-25T02:30:08,2420,42.8014,5.9826,4330,272,186.761,57.198,13.309,36.021,36.601,41.194,4.593,295.3,543.9,291.3
2023-10-25T02:33:07,2420,42.8014,5.9826,4330,272,186.693,57.174,13.306,36.026,36.606,41.197,4.591,295.4,543.8,291.3
2023-10-25T02:36:07,2420,42.8014,5.9826,4330,272,186.790,57.205,13.307,36.019,36.600,41.187,4.587,295.4,543.9,291.3
2023-10-25T02:39:07,2420,42.8014,5.9826,4330,272,186.677,57.171,13.308,36.027,36.607,41.195,4.588,295.3,543.9,291.3
2023-10-25T02:42:08,2420,42.8014,5.9826,4330,272,186.852,57.224,13.307,36.016,36.596,41.190,4.594,295.3,543.9,291.3
2023-10-25T02:45:08,2420,42.8014,5.9826,4330,272,186.825,57.215,13.307,36.018,36.598,41.189,4.591,295.3,543.9,291.3
2023-10-25T02:48:08,2420,42.8014,5.9826,4330,272,186.541,57.129,13.307,36.036,36.616,41.210,4.594,295.3,543.8,291.3
2023-10-25T02:51:08,2420,42.8014,5.9826,4330,272,186.603,57.149,13.308,36.031,36.611,41.199,4.587,295.4,543.8,291.3
2023-10-25T02:54:07,2420,42.8014,5.9826,4330,272,186.663,57.166,13.307,36.028,36.608,41.202,4.594,295.3,543.9,291.3
2023-10-25T02:57:07,2420,42.8014,5.9826,4330,272,187.025,57.275,13.306,36.005,36.586,41.181,4.596,295.3,543.9,291.4
2023-10-25T03:00:07,2420,42.8014,5.9826,4330,272,186.753,57.194,13.308,36.022,36.602,41.192,4.590,295.3,543.8,291.3
2023-10-25T03:03:08,2420,42.8014,5.9826,4330,272,186.967,57.259,13.307,36.008,36.588,41.184,4.596,295.3,543.9,291.3
2023-10-25T03:06:08,2420,42.8014,5.9826,4330,272,186.752,57.191,13.305,36.023,36.603,41.198,4.595,295.3,543.9,291.4
2023-10-25T03:09:08,2420,42.8014,5.9826,4330,272,186.803,57.207,13.306,36.020,36.600,41.191,4.591,295.3,543.9,291.4
2023-10-25T03:12:07,2420,42.8014,5.9826,4330,272,186.883,57.233,13.307,36.014,36.594,41.185,4.591,295.3,543.9,291.3
2023-10-25T03:15:07,2420,42.8014,5.9826,4330,272,186.873,57.230,13.307,36.014,36.595,41.188,4.594,295.3,543.9,291.3
2023-10-25T03:18:07,2420,42.8014,5.9826,4330,272,186.787,57.202,13.306,36.021,36.601,41.194,4.593,295.3,543.8,291.4
2023-10-25T03:21:07,2420,42.8014,5.9826,4330,272,186.885,57.233,13.306,36.014,36.594,41.187,4.593,295.3,543.9,291.4
2023-10-25T03:24:07,2420,42.8014,5.9826,4330,272,186.822,57.214,13.306,36.018,36.598,41.187,4.589,295.3,543.8,291.3
2023-10-25T03:27:08,2420,42.8014,5.9826,4330,272,186.884,57.233,13.306,36.014,36.595,41.184,4.589,295.4,543.8,291.3
2023-10-25T03:30:08,2420,42.8014,5.9826,4330,272,186.840,57.220,13.307,36.017,36.597,41.191,4.594,295.4,543.9,291.3
2023-10-25T03:33:07,2420,42.8014,5.9826,4330,272,186.715,57.182,13.307,36.025,36.605,41.195,4.590,295.3,543.9,291.3
2023-10-25T03:36:07,2420,42.8014,5.9826,4330,272,186.827,57.214,13.305,36.018,36.598,41.188,4.590,295.3,543.9,291.4
2023-10-25T03:39:07,2420,42.8014,5.9826,4330,272,186.770,57.200,13.308,36.021,36.601,41.191,4.590,295.4,543.8,291.3
2023-10-25T03:42:07,2420,42.8014,5.9826,4330,272,186.905,57.240,13.307,36.012,36.592,41.186,4.594,295.3,543.9,291.3
2023-10-25T03:45:07,2420,42.8014,5.9826,4330,272,187.002,57.268,13.306,36.006,36.587,41.177,4.590,295.3,543.8,291.4
2023-10-25T03:48:07,2420,42.8014,5.9826,4330,272,186.814,57.214,13.309,36.018,36.598,41.189,4.591,295.3,543.8,291.3
2023-10-25T03:51:07,2420,42.8014,5.9826,4330,272,186.866,57.224,13.304,36.017,36.597,41.190,4.593,295.3,543.8,291.4
2023-10-25T03:54:08,2420,42.8014,5.9826,4330,272,187.029,57.274,13.304,36.006,36.586,41.180,4.594,295.3,543.9,291.4
2023-10-25T03:57:08,2420,42.8014,5.9826,4330,272,186.831,57.217,13.306,36.018,36.598,41.193,4.595,295.3,543.8,291.3
2023-10-25T04:00:08,2420,42.8014,5.9826,4330,272,186.922,57.242,13.304,36.012,36.593,41.186,4.593,295.3,543.9,291.4
2023-10-25T04:03:07,2420,42.8014,5.9826,4330,272,186.845,57.220,13.305,36.017,36.598,41.188,4.590,295.3,543.9,291.4
2023-10-25T04:06:07,2420,42.8014,5.9826,4330,272,186.865,57.225,13.305,36.016,36.596,41.185,4.589,295.3,543.8,291.4
2023-10-25T04:09:07,2420,42.8014,5.9826,4330,272,186.766,57.195,13.305,36.023,36.603,41.194,4.592,295.3,543.9,291.4
2023-10-25T04:12:07,2420,42.8014,5.9826,4330,272,186.791,57.203,13.305,36.020,36.600,41.197,4.597,295.3,543.9,291.4
2023-10-25T04:15:07,2420,42.8014,5.9826,4330,272,186.929,57.243,13.304,36.012,36.592,41.184,4.592,295.3,543.9,291.4
2023-10-25T04:18:08,2420,42.8014,5.9826,4330,272,187.017,57.269,13.303,36.007,36.587,41.184,4.596,295.3,543.9,291.5
2023-10-25T04:21:08,2420,42.8014,5.9826,4330,272,186.877,57.229,13.305,36.015,36.595,41.186,4.590,295.2,543.9,291.4
2023-10-25T04:24:08,2420,42.8014,5.9826,4330,272,186.997,57.262,13.303,36.008,36.589,41.181,4.592,295.3,543.9,291.5
2023-10-25T04:27:08,2420,42.8014,5.9826,4330,272,186.781,57.195,13.302,36.023,36.603,41.193,4.590,295.3,543.9,291.5
2023-10-25T04:30:08,2420,42.8014,5.9826,4330,272,186.819,57.209,13.303,36.020,36.600,41.194,4.594,295.3,543.9,291.4
2023-10-25T04:33:07,2420,42.8014,5.9826,4330,272,186.876,57.226,13.303,36.016,36.596,41.188,4.592,295.3,543.9,291.4
2023-10-25T04:36:07,2420,42.8014,5.9826,4330,272,186.826,57.211,13.303,36.020,36.600,41.190,4.590,295.3,543.9,291.5
2023-10-25T04:39:07,2420,42.8014,5.9826,4330,272,186.837,57.216,13.304,36.018,36.598,41.191,4.593,295.3,543.9,291.4
2023-10-25T04:42:07,2420,42.8014,5.9826,4330,272,186.922,57.241,13.304,36.013,36.593,41.182,4.589,295.2,543.9,291.4
2023-10-25T04:45:08,2420,42.8014,5.9826,4330,272,186.944,57.247,13.303,36.012,36.592,41.186,4.594,295.3,543.9,291.5
2023-10-25T04:48:08,2420,42.8014,5.9826,4330,272,186.896,57.232,13.302,36.015,36.596,41.187,4.592,295.4,543.9,291.5
2023-10-25T04:51:08,2420,42.8014,5.9826,4330,272,186.882,57.232,13.306,36.015,36.595,41.184,4.589,295.2,543.9,291.4
2023-10-25T04:54:08,2420,42.8014,5.9826,4330,272,186.950,57.249,13.304,36.011,36.592,41.184,4.593,295.3,543.9,291.4
2023-10-25T04:57:08,2420,42.8014,5.9826,4330,272,186.857,57.220,13.303,36.018,36.598,41.188,4.591,295.3,543.8,291.4
2023-10-25T05:00:07,2420,42.8014,5.9826,4330,272,186.930,57.245,13.305,36.012,36.592,41.183,4.591,295.3,543.9,291.4
2023-10-25T05:03:07,2420,42.8014,5.9826,4330,272,186.923,57.243,13.305,36.012,36.592,41.184,4.592,295.3,543.9,291.4
2023-10-25T05:06:07,2420,42.8014,5.9826,4330,272,187.023,57.273,13.305,36.006,36.586,41.179,4.593,295.3,543.9,291.4
2023-10-25T05:09:07,2420,42.8014,5.9826,4330,272,186.601,57.144,13.304,36.033,36.613,41.202,4.589,295.3,543.8,291.4
2023-10-25T05:12:07,2420,42.8014,5.9826,4330,272,186.825,57.212,13.304,36.018,36.599,41.187,4.588,295.3,543.9,291.4
2023-10-25T05:15:07,2420,42.8014,5.9826,4330,272,186.871,57.229,13.307,36.015,36.595,41.188,4.593,295.3,543.9,291.3
2023-10-25T05:18:07,2420,42.8014,5.9826,4330,272,187.140,57.308,13.304,35.999,36.579,41.177,4.598,295.3,543.9,291.4
2023-10-25T05:21:07,2420,42.8014,5.9826,4330,272,186.976,57.259,13.305,36.009,36.589,41.178,4.590,295.3,543.9,291.4
2023-10-25T05:24:08,2420,42.8014,5.9826,4330,272,186.740,57.185,13.304,36.025,36.605,41.197,4.592,295.4,543.9,291.4
2023-10-25T05:27:08,2420,42.8014,5.9826,4330,272,186.704,57.174,13.303,36.028,36.608,41.201,4.594,295.4,543.9,291.5
2023-10-25T05:30:08,2420,42.8014,5.9826,4330,272,186.804,57.203,13.302,36.022,36.602,41.194,4.592,295.3,543.9,291.5
2023-10-25T05:33:07,2420,42.8014,5.9826,4330,272,186.781,57.198,13.303,36.022,36.603,41.196,4.594,295.4,543.9,291.4
2023-10-25T05:36:07,2420,42.8014,5.9826,4330,272,186.941,57.246,13.303,36.012,36.592,41.184,4.592,295.4,543.9,291.4
2023-10-25T05:39:07,2420,42.8014,5.9826,4330,272,186.814,57.206,13.302,36.020,36.600,41.191,4.591,295.4,544.0,291.5
2023-10-25T05:42:07,2420,42.8014,5.9826,4330,272,186.771,57.193,13.302,36.024,36.604,41.195,4.591,295.3,543.9,291.5
2023-10-25T05:45:07,2420,42.8014,5.9826,4330,272,186.766,57.191,13.302,36.024,36.604,41.191,4.587,295.3,543.9,291.5
2023-10-25T05:48:07,2420,42.8014,5.9826,4330,272,186.792,57.201,13.304,36.021,36.602,41.195,4.594,295.4,543.9,291.4
2023-10-25T05:51:07,2420,42.8014,5.9826,4330,272,186.935,57.247,13.305,36.011,36.591,41.181,4.589,295.3,544.0,291.4
2023-10-25T05:54:07,2420,42.8014,5.9826,4330,272,186.739,57.188,13.306,36.023,36.603,41.194,4.591,295.3,543.9,291.4
2023-10-25T05:57:08,2420,42.8014,5.9826,4330,272,186.853,57.224,13.307,36.016,36.596,41.191,4.595,295.4,543.9,291.3
2023-10-25T06:00:08,2420,42.8014,5.9826,4330,272,186.778,57.196,13.303,36.023,36.603,41.193,4.590,295.4,543.9,291.5
2023-10-25T06:03:07,2420,42.8014,5.9826,4330,272,186.833,57.212,13.303,36.019,36.600,41.190,4.590,295.4,543.9,291.5
2023-10-25T06:06:07,2420,42.8014,5.9826,4330,272,186.770,57.194,13.303,36.023,36.603,41.197,4.594,295.3,543.9,291.5
2023-10-25T06:09:08,2420,42.8014,5.9826,4330,272,186.775,57.195,13.303,36.023,36.603,41.193,4.590,295.4,543.8,291.5
2023-10-25T06:12:07,2420,42.8014,5.9826,4330,272,186.746,57.187,13.304,36.024,36.605,41.196,4.591,295.3,544.0,291.4
2023-10-25T06:15:07,2420,42.8014,5.9826,4330,272,186.914,57.239,13.304,36.013,36.594,41.187,4.594,295.3,543.8,291.4
2023-10-25T06:18:07,2420,42.8014,5.9826,4330,272,186.626,57.150,13.303,36.032,36.612,41.200,4.587,295.3,543.9,291.4
2023-10-25T06:21:07,2420,42.8014,5.9826,4330,272,186.805,57.205,13.303,36.021,36.601,41.191,4.591,295.3,543.9,291.4
2023-10-25T06:24:07,2420,42.8014,5.9826,4330,272,186.804,57.202,13.301,36.022,36.602,41.190,4.588,295.3,543.9,291.5
2023-10-25T06:27:07,2420,42.8014,5.9826,4330,272,186.971,57.254,13.302,36.010,36.590,41.178,4.588,295.4,543.9,291.5
2023-10-25T06:30:07,2420,42.8014,5.9826,4330,272,186.712,57.174,13.302,36.027,36.607,41.195,4.588,295.3,543.9,291.5
2023-10-25T06:33:07,2420,42.8014,5.9826,4330,272,186.729,57.182,13.304,36.025,36.605,41.194,4.589,295.3,543.9,291.4
2023-10-25T06:36:07,2420,42.8014,5.9826,4330,272,187.010,57.267,13.303,36.008,36.588,41.182,4.595,295.3,543.9,291.4
2023-10-25T06:39:07,2420,42.8014,5.9826,4330,272,186.851,57.215,13.300,36.019,36.599,41.196,4.597,295.3,543.8,291.5
2023-10-25T06:42:07,2420,42.8014,5.9826,4330,272,186.952,57.248,13.302,36.012,36.592,41.184,4.592,295.3,543.9,291.5
2023-10-25T06:45:08,2420,42.8014,5.9826,4330,272,186.782,57.195,13.301,36.023,36.603,41.192,4.589,295.3,543.9,291.5
2023-10-25T06:48:08,2420,42.8014,5.9826,4330,272,186.783,57.197,13.303,36.022,36.602,41.193,4.591,295.3,543.9,291.5
2023-10-25T06:51:08,2420,42.8014,5.9826,4330,272,187.073,57.286,13.303,36.003,36.584,41.177,4.593,295.3,543.9,291.5
2023-10-25T06:54:08,2420,42.8014,5.9826,4330,272,186.827,57.210,13.302,36.020,36.600,41.193,4.593,295.4,543.9,291.5
2023-10-25T06:57:08,2420,42.8014,5.9826,4330,272,186.884,57.227,13.302,36.016,36.596,41.184,4.588,295.4,543.9,291.5
2023-10-25T07:00:07,2420,42.8014,5.9826,4330,272,186.654,57.159,13.304,36.030,36.610,41.199,4.589,295.4,543.9,291.4
2023-10-25T07:03:07,2420,42.8014,5.9826,4330,272,186.779,57.195,13.302,36.023,36.603,41.195,4.592,295.3,543.9,291.5
2023-10-25T07:06:07,2420,42.8014,5.9826,4330,272,186.802,57.203,13.303,36.021,36.601,41.195,4.594,295.3,543.9,291.5
2023-10-25T07:09:07,2420,42.8014,5.9826,4330,272,186.886,57.227,13.301,36.016,36.596,41.185,4.588,295.2,543.9,291.5
2023-10-25T07:12:07,2420,42.8014,5.9826,4330,272,186.852,57.216,13.301,36.018,36.598,41.193,4.595,295.4,543.9,291.5
2023-10-25T07:15:07,2420,42.8014,5.9826,4330,272,187.022,57.268,13.301,36.007,36.587,41.181,4.594,295.3,544.0,291.5
2023-10-25T07:18:08,2420,42.8014,5.9826,4330,272,186.887,57.227,13.301,36.016,36.596,41.187,4.591,295.3,544.0,291.5
2023-10-25T07:21:08,2420,42.8014,5.9826,4330,272,186.916,57.239,13.303,36.013,36.594,41.181,4.587,295.3,543.9,291.4
2023-10-25T07:24:08,2420,42.8014,5.9826,4330,272,187.016,57.267,13.301,36.008,36.588,41.179,4.591,295.3,543.9,291.5
2023-10-25T07:27:08,2420,42.8014,5.9826,4330,272,187.028,57.269,13.300,36.008,36.588,41.177,4.589,295.3,543.9,291.5
2023-10-25T07:30:08,2420,42.8014,5.9826,4330,272,186.601,57.140,13.302,36.034,36.614,41.199,4.585,295.3,544.0,291.5
2023-10-25T07:33:07,2420,42.8014,5.9826,4330,272,186.886,57.230,13.304,36.015,36.595,41.188,4.593,295.3,543.9,291.4
2023-10-25T07:36:07,2420,42.8014,5.9826,4330,272,186.898,57.233,13.303,36.015,36.595,41.188,4.593,295.3,544.0,291.4
2023-10-25T07:39:07,2420,42.8014,5.9826,4330,272,186.849,57.217,13.302,36.019,36.599,41.192,4.593,295.3,544.0,291.5
2023-10-25T07:42:07,2420,42.8014,5.9826,4330,272,186.988,57.263,13.305,36.008,36.589,41.181,4.592,295.3,543.9,291.4
2023-10-25T07:45:07,2420,42.8014,5.9826,4330,272,186.745,57.188,13.304,36.024,36.604,41.194,4.589,295.3,543.9,291.4
2023-10-25T07:48:07,2420,42.8014,5.9826,4330,272,186.619,57.149,13.304,36.032,36.613,41.201,4.588,295.3,544.0,291.4
2023-10-25T07:51:07,2420,42.8014,5.9826,4330,272,186.948,57.245,13.301,36.012,36.592,41.187,4.595,295.3,543.9,291.5
2023-10-25T07:54:08,2420,42.8014,5.9826,4330,272,186.772,57.194,13.303,36.023,36.603,41.191,4.588,295.3,543.9,291.5
2023-10-25T07:57:08,2420,42.8014,5.9826,4330,272,187.104,57.294,13.301,36.002,36.583,41.172,4.589,295.3,543.9,291.5
2023-10-25T08:00:08,2420,42.8014,5.9826,4330,272,186.951,57.246,13.301,36.013,36.593,41.184,4.591,295.3,543.9,291.5
2023-10-25T08:03:07,2420,42.8014,5.9826,4330,272,186.946,57.246,13.302,36.012,36.592,41.182,4.590,295.3,544.0,291.5
2023-10-25T08:06:07,2420,42.8014,5.9826,4330,272,186.744,57.184,13.302,36.025,36.605,41.194,4.589,295.3,543.9,291.5
2023-10-25T08:09:07,2420,42.8014,5.9826,4330,272,186.836,57.214,13.303,36.019,36.599,41.190,4.591,295.2,544.0,291.5
2023-10-25T08:12:07,2420,42.8014,5.9826,4330,272,186.848,57.219,13.304,36.018,36.598,41.184,4.587,295.4,543.9,291.4
2023-10-25T08:15:07,2420,42.8014,5.9826,4330,272,186.911,57.241,13.307,36.012,36.592,41.185,4.593,295.3,543.9,291.3
2023-10-25T08:18:07,2420,42.8014,5.9826,4330,272,186.643,57.158,13.305,36.030,36.610,41.199,4.589,295.3,543.9,291.4
2023-10-25T08:21:07,2420,42.8014,5.9826,4330,272,186.756,57.190,13.304,36.024,36.604,41.196,4.592,295.3,543.9,291.4
2023-10-25T08:24:07,2420,42.8014,5.9826,4330,272,186.761,57.189,13.302,36.024,36.604,41.199,4.595,295.3,544.0,291.5
2023-10-25T08:27:07,2420,42.8014,5.9826,4330,272,186.949,57.251,13.305,36.011,36.591,41.186,4.595,295.3,543.9,291.4
2023-10-25T08:30:07,2420,42.8014,5.9826,4330,272,186.842,57.214,13.302,36.019,36.599,41.193,4.594,295.4,543.9,291.5
2023-10-25T08:33:07,2420,42.8014,5.9826,4330,272,187.134,57.305,13.303,36.000,36.580,41.170,4.590,295.4,543.9,291.5
2023-10-25T08:36:07,2420,42.8014,5.9826,4330,272,186.716,57.178,13.303,36.026,36.606,41.196,4.590,295.3,543.9,291.4
2023-10-25T08:39:08,2420,42.8014,5.9826,4330,272,186.739,57.184,13.303,36.025,36.605,41.194,4.589,295.3,543.9,291.4
2023-10-25T08:42:08,2420,42.8014,5.9826,4330,272,187.064,57.284,13.304,36.004,36.584,41.180,4.597,295.3,543.9,291.4
2023-10-25T08:45:08,2420,42.8014,5.9826,4330,272,186.741,57.187,13.305,36.024,36.604,41.195,4.591,295.3,544.0,291.4
2023-10-25T08:48:07,2420,42.8014,5.9826,4330,272,186.622,57.151,13.305,36.032,36.612,41.200,4.588,295.4,544.0,291.4
2023-10-25T08:51:07,2420,42.8014,5.9826,4330,272,186.947,57.253,13.308,36.010,36.590,41.183,4.593,295.4,543.9,291.3
2023-10-25T08:54:07,2420,42.8014,5.9826,4330,272,187.007,57.267,13.303,36.007,36.587,41.179,4.592,295.2,543.9,291.4
2023-10-25T08:57:07,2420,42.8014,5.9826,4330,272,186.984,57.260,13.304,36.009,36.589,41.182,4.594,295.4,544.0,291.4
2023-10-25T09:00:07,2420,42.8014,5.9826,4330,272,186.947,57.245,13.301,36.012,36.592,41.187,4.595,295.4,543.9,291.5
2023-10-25T09:03:07,2420,42.8014,5.9826,4330,272,187.089,57.290,13.302,36.003,36.583,41.176,4.592,295.3,543.9,291.5
2023-10-25T09:06:07,2420,42.8014,5.9826,4330,272,186.843,57.215,13.302,36.019,36.599,41.191,4.592,295.3,543.9,291.5
2023-10-25T09:09:07,2420,42.8014,5.9826,4330,272,186.525,57.121,13.305,36.039,36.619,41.206,4.587,295.3,543.9,291.4
2023-10-25T09:12:07,2420,42.8014,5.9826,4330,272,186.757,57.191,13.304,36.024,36.604,41.195,4.591,295.3,543.9,291.4
2023-10-25T09:15:07,2420,42.8014,5.9826,4330,272,186.729,57.180,13.302,36.026,36.606,41.195,4.589,295.3,543.9,291.5
2023-10-25T09:18:07,2420,42.8014,5.9826,4330,272,186.959,57.254,13.305,36.010,36.590,41.180,4.590,295.3,543.9,291.4
2023-10-25T09:21:08,2420,42.8014,5.9826,4330,272,186.995,57.262,13.302,36.009,36.589,41.179,4.590,295.3,543.9,291.5
2023-10-25T09:24:08,2420,42.8014,5.9826,4330,272,186.687,57.168,13.303,36.029,36.609,41.201,4.592,295.2,544.0,291.4
2023-10-25T09:27:08,2420,42.8014,5.9826,4330,272,187.026,57.272,13.303,36.006,36.587,41.172,4.585,295.3,543.9,291.5
2023-10-25T09:30:08,2420,42.8014,5.9826,4330,272,186.903,57.234,13.302,36.015,36.595,41.187,4.592,295.3,543.9,291.5
2023-10-25T09:33:07,2420,42.8014,5.9826,4330,272,186.976,57.256,13.302,36.010,36.590,41.187,4.597,295.3,543.9,291.5
2023-10-25T09:36:07,2420,42.8014,5.9826,4330,272,186.881,57.229,13.304,36.015,36.596,41.189,4.594,295.4,543.9,291.4
2023-10-25T09:39:07,2420,42.8014,5.9826,4330,272,186.758,57.191,13.304,36.023,36.604,41.194,4.591,295.4,543.9,291.4
2023-10-25T09:42:07,2420,42.8014,5.9826,4330,272,186.860,57.224,13.305,36.016,36.596,41.188,4.591,295.4,543.9,291.4
2023-10-25T09:45:07,2420,42.8014,5.9826,4330,272,186.915,57.239,13.304,36.013,36.594,41.185,4.591,295.4,543.9,291.4
2023-10-25T09:48:07,2420,42.8014,5.9826,4330,272,186.656,57.158,13.303,36.031,36.611,41.204,4.593,295.3,543.9,291.5
2023-10-25T09:51:07,2420,42.8014,5.9826,4330,272,187.079,57.289,13.303,36.003,36.583,41.178,4.595,295.4,543.9,291.4
2023-10-25T09:54:08,2420,42.8014,5.9826,4330,272,186.820,57.209,13.303,36.020,36.600,41.192,4.592,295.3,543.9,291.5
2023-10-25T09:57:08,2420,42.8014,5.9826,4330,272,186.659,57.163,13.305,36.029,36.609,41.199,4.590,295.3,543.9,291.4
2023-10-25T10:00:08,2420,42.8014,5.9826,4330,272,186.618,57.147,13.303,36.033,36.613,41.203,4.590,295.3,544.0,291.5